KCALAKEH4 Weather Reports


time (UTC)temp
F
wind
direction
speed
knots
gust
knots
rain 1hr
in
rain 24hr
in
rain mn
in
humidity
%
barometer
mb
20260506221551 75 355 2.6 9.6 0.00 0.00 0.00 32 1016.4
20260506214548 75 302 1.7 9.6 0.00 0.00 0.00 33 1016.9
20260506213044 74 302 2.6 7.8 0.00 0.00 0.00 33 1016.9
20260506211551 74 315 2.6 7.8 0.00 0.00 0.00 32 1017.1
20260506210038 73 290 2.6 8.7 0.00 0.00 0.00 33 1017.2
20260506204539 73 329 3.5 9.6 0.00 0.00 0.00 33 1017.5
20260506203034 73 336 1.7 7.0 0.00 0.00 0.00 33 1017.6
20260506201531 71 5 3.5 8.7 0.00 0.00 0.00 34 1017.8
20260506200028 71 184 1.7 6.1 0.00 0.00 0.00 35 1017.8
20260506194534 71 329 2.6 5.2 0.00 0.00 0.00 34 1018.0
20260506193024 70 355 3.5 10.4 0.00 0.00 0.00 36 1018.2
20260506191521 69 259 3.5 9.6 0.00 0.00 0.00 37 1018.4
20260506190019 68 344 4.3 10.4 0.00 0.00 0.00 39 1018.5
20260506184516 67 346 1.7 7.8 0.00 0.00 0.00 40 1018.7
20260506183012 66 345 3.5 9.6 0.00 0.00 0.00 43 1018.8
20260506181511 65 350 5.2 13.0 0.00 0.00 0.00 43 1018.9
20260506180009 65 360 1.7 7.8 0.00 0.00 0.00 43 1019.0
20260506174506 64 355 3.5 8.7 0.00 0.00 0.00 44 1018.9
20260506173004 63 355 6.1 10.4 0.00 0.00 0.00 44 1019.0
20260506171608 62 360 4.3 9.6 0.00 0.00 0.00 49 1018.9
20260506170107 61 348 3.5 7.8 0.00 0.00 0.00 51 1019.0
20260506164554 60 355 4.3 7.8 0.00 0.00 0.00 50 1018.8
20260506163051 59 275 2.6 10.4 0.00 0.00 0.00 53 1018.9
20260506161550 58 355 3.5 9.6 0.00 0.00 0.00 54 1018.8
20260506160058 57 304 5.2 8.7 0.00 0.00 0.00 58 1018.7
20260506160024 57 329 5.2 8.7 0.00 0.00 0.00 58 1018.7
20260506154541 55 348 2.6 7.8 0.00 0.00 0.00 61 1018.7
20260506153036 53 351 3.5 8.7 0.00 0.00 0.00 64 1018.8
20260506151533 53 348 3.5 8.7 0.00 0.00 0.00 68 1018.9
20260506150030 52 5 3.5 7.8 0.00 0.00 0.00 66 1018.8
20260506144526 51 355 2.6 7.8 0.00 0.00 0.00 68 1018.6
20260506143023 50 347 2.6 7.0 0.00 0.00 0.00 71 1018.7
20260506141519 48 284 1.7 7.8 0.00 0.00 0.00 76 1018.7
20260506140015 46 294 1.7 7.8 0.00 0.00 0.00 81 1018.7
20260506134515 45 360 0.9 2.6 0.00 0.00 0.00 82 1018.4
20260506133011 45 360 0.9 3.5 0.00 0.00 0.00 83 1018.3
20260506131525 45 360 0.9 3.5 0.00 0.00 0.00 83 1018.1
20260506130008 46 360 0.9 2.6 0.00 0.00 0.00 82 1018.1
20260506124507 46 5 1.7 5.2 0.00 0.00 0.00 82 1017.9
20260506123005 46 290 1.7 9.6 0.00 0.00 0.00 82 1018.0
20260506121504 46 309 1.7 8.7 0.00 0.00 0.00 81 1017.8
20260506120003 46 296 2.6 7.0 0.00 0.00 0.00 81 1017.8
20260506114700 46 344 1.7 9.6 0.00 0.00 0.00 81 1017.8
20260506113059 46 336 1.7 7.0 0.00 0.00 0.00 79 1017.7
20260506111556 46 5 3.5 8.7 0.00 0.00 0.00 79 1017.6
20260506110103 46 5 1.7 8.7 0.00 0.00 0.00 79 1017.8
20260506104557 46 292 1.7 8.7 0.00 0.00 0.00 80 1017.6
20260506103052 46 319 0.9 5.2 0.00 0.00 0.00 79 1017.7
20260506101551 47 311 2.6 9.6 0.00 0.00 0.00 79 1017.7
20260506100050 46 322 1.7 4.3 0.00 0.00 0.00 79 1017.7
20260506094614 46 344 2.6 7.8 0.00 0.00 0.00 79 1017.6
20260506093047 47 301 0.9 7.0 0.00 0.00 0.00 78 1017.5
20260506091549 47 336 2.6 8.7 0.00 0.00 0.00 79 1017.5
20260506090045 46 343 2.6 7.0 0.00 0.00 0.00 79 1017.8
20260506084545 47 283 0.9 7.0 0.00 0.00 0.00 78 1017.7
20260506083041 47 335 3.5 8.7 0.00 0.00 0.00 79 1017.9
20260506081543 47 355 1.7 10.4 0.00 0.00 0.00 78 1017.8
20260506073038 47 355 3.5 9.6 0.00 0.00 0.00 78 1017.9
20260506071535 47 340 2.6 8.7 0.00 0.00 0.00 78 1017.7
20260506061527 47 306 2.6 7.8 0.00 0.00 0.00 78 1017.1
20260506044522 46 360 2.6 7.8 0.00 0.00 0.00 80 1016.6
20260506043020 46 309 2.6 7.0 0.00 0.00 0.00 81 1016.6
20260506041521 46 335 3.5 8.7 0.00 0.00 0.00 82 1016.2
20260506040018 46 355 2.6 7.8 0.00 0.00 0.00 81 1016.2
20260506034516 46 355 2.6 7.8 0.00 0.00 0.00 81 1016.0
20260506033016 46 355 1.7 5.2 0.00 0.00 0.00 81 1016.0
20260506031513 46 348 2.6 7.8 0.00 0.00 0.00 81 1015.7
20260506030025 47 360 1.7 7.8 0.00 0.00 0.00 80 1015.6
20260506024525 47 288 4.3 8.7 0.00 0.00 0.00 80 1015.4
20260506023009 47 331 3.5 9.6 0.00 0.00 0.00 79 1015.4
20260506021508 48 323 3.5 13.9 0.00 0.00 0.00 78 1015.1
20260506020007 48 5 2.6 7.8 0.00 0.00 0.00 77 1015.0
20260506014506 49 5 2.6 10.4 0.00 0.00 0.00 76 1014.8
20260506013008 49 355 4.3 12.2 0.00 0.00 0.00 75 1014.9
20260506011506 49 5 4.3 8.7 0.00 0.00 0.00 74 1015.1
20260506010106 49 322 3.5 11.3 0.00 0.00 0.00 74 1015.1
20260506004505 50 360 3.5 13.0 0.00 0.00 0.00 71 1015.0
20260506003011 51 360 3.5 13.9 0.00 0.00 0.00 71 1014.9
20260506001503 51 275 3.5 12.2 0.00 0.00 0.00 72 1014.6
20260506000002 51 284 3.5 10.4 0.00 0.00 0.00 72 1014.7
20260505234502 51 360 6.1 13.9 0.00 0.00 0.00 71 1014.5
20260505233001 51 309 3.5 13.9 0.00 0.00 0.00 72 1014.6
20260505231501 51 331 5.2 12.2 0.00 0.00 0.00 71 1014.5
20260505224600 52 355 5.2 10.4 0.00 0.00 0.00 68 1014.8
20260505223059 52 346 5.2 13.9 0.00 0.00 0.00 70 1014.7